Newport, NC

3:31 PM EST on February 19, 2017 (GMT -0500)
Bogue McAlf

Weather History for KNJM - August, 2012

Change the Weather History Date:

Wednesday, August 29, 2012

  Actual Average (KNKT) Record (KNKT)
Temperature  
Mean Temperature 78 °F -  
Max Temperature 84 °F 83 °F 91 °F (1997)
Min Temperature 73 °F 68 °F 66 °F (2010)
Cooling Degree Days 12    
Growing Degree Days 28 (Base 50)    
Moisture  
Dew Point 72 °F    
Average Humidity 88    
Maximum Humidity 94    
Minimum Humidity 69    
Precipitation  
Precipitation 0.11 in - - ()
Sea Level Pressure  
Sea Level Pressure 29.97 in    
Wind  
Wind Speed 4 mph (WNW)    
Max Wind Speed 7 mph    
Max Gust Speed -    
Visibility 9 miles    
Events Rain    
Averages and records for this station are not official NWS values.
T = Trace of Precipitation, MM = Missing Value Source: NWS Daily Summary

Daily Weather History Graph

Daily Weather History Graph

Search for Another Location

Airport or City:

Trip Planner

Search our weather history database for the weather conditions in past years. The results will help you decide how hot, cold, wet, or windy it might be!

Date:

Astronomy

Aug. 29, 2012 Rise Set
Actual Time 6:39 AM EDT 7:37 PM EDT
Civil Twilight 6:13 AM EDT 8:03 PM EDT
Nautical Twilight 5:42 AM EDT 8:34 PM EDT
Astronomical Twilight 5:11 AM EDT 9:05 PM EDT
Moon 6:15 PM EDT (8/29) 4:35 AM EDT (8/29)
Length of Visible Light 13h 50m
Length of Day
12h 58m
Waxing Gibbous, 96% of the Moon is Illuminated
Aug 29
Waxing Gibbous
Aug 31
Full
Sep 8
Last Quarter
Sep 15
New
Sep 22
First Quarter

Hourly Weather History & Observations

Time (EDT) Temp. Heat Index Dew Point Humidity Pressure Visibility Wind Dir Wind Speed Gust Speed Precip Events Conditions
12:35 AM 75.2 °F - 73.4 °F 94% 29.98 in 9.0 mi Variable 5.8 mph - 0.00 in Rain Light Rain
12:57 AM 75.0 °F - 73.0 °F 94% 29.99 in 10.0 mi West 5.8 mph - 0.00 in   Overcast
1:10 AM 75.2 °F - 73.4 °F 94% 29.96 in 10.0 mi Variable 4.6 mph - N/A   Mostly Cloudy
1:47 AM 75.2 °F - 71.6 °F 89% 29.94 in 10.0 mi Variable 3.5 mph - N/A   Mostly Cloudy
1:57 AM 75.0 °F - 72.0 °F 90% 29.95 in 10.0 mi WNW 3.5 mph - N/A   Scattered Clouds
2:57 AM 73.9 °F - 72.0 °F 93% 29.94 in 10.0 mi WSW 3.5 mph - N/A   Scattered Clouds
3:57 AM 73.9 °F - 72.0 °F 93% 29.94 in 10.0 mi Calm Calm - N/A   Overcast
4:57 AM 73.9 °F - 72.0 °F 93% 29.92 in 10.0 mi WNW 4.6 mph - N/A   Overcast
5:08 AM 73.4 °F - 71.6 °F 94% 29.91 in 10.0 mi NW 4.6 mph - N/A   Overcast
5:23 AM 73.4 °F - 71.6 °F 94% 29.92 in 10.0 mi WNW 3.5 mph - N/A   Overcast
5:57 AM 73.9 °F - 72.0 °F 93% 29.94 in 10.0 mi NW 3.5 mph - N/A   Overcast
6:57 AM 73.9 °F - 72.0 °F 93% 29.96 in 5.0 mi WNW 3.5 mph - 0.04 in Rain Rain
7:11 AM 73.4 °F - 71.6 °F 94% 29.95 in 5.0 mi Calm Calm - 0.02 in Rain Rain
7:57 AM 73.9 °F - 72.0 °F 93% 29.97 in 7.0 mi WNW 4.6 mph - 0.07 in Rain Light Rain
8:57 AM 75.0 °F - 73.0 °F 94% 29.96 in 8.0 mi NW 4.6 mph - 0.00 in Rain Light Rain
9:57 AM 77.0 °F - 73.0 °F 88% 29.98 in 8.0 mi NW 5.8 mph - 0.00 in   Overcast
10:57 AM 77.0 °F - 73.0 °F 88% 29.99 in 9.0 mi NNW 4.6 mph - 0.00 in Rain Light Rain
11:57 AM 79.0 °F - 73.0 °F 82% 29.99 in 10.0 mi North 3.5 mph - 0.00 in   Mostly Cloudy
12:06 PM 78.8 °F - 71.6 °F 78% 29.98 in 10.0 mi North 5.8 mph - N/A   Mostly Cloudy
12:57 PM 82.9 °F 88.0 °F 72.0 °F 69% 29.98 in 10.0 mi North 5.8 mph - N/A   Mostly Cloudy
2:57 PM 82.9 °F 88.8 °F 73.0 °F 72% 29.98 in 10.0 mi SE 5.8 mph - N/A   Mostly Cloudy
3:57 PM 80.1 °F 84.2 °F 73.0 °F 79% 29.97 in 10.0 mi SSE 6.9 mph - N/A   Mostly Cloudy
4:57 PM 80.1 °F 84.2 °F 73.0 °F 79% 29.97 in 10.0 mi Variable 6.9 mph - N/A   Mostly Cloudy
5:57 PM 80.1 °F 83.8 °F 72.0 °F 76% 29.98 in 10.0 mi South 5.8 mph - N/A   Mostly Cloudy
6:57 PM 78.1 °F - 72.0 °F 81% 29.98 in 10.0 mi South 4.6 mph - N/A   Clear
7:57 PM 77.0 °F - 72.0 °F 84% 30.00 in 10.0 mi South 3.5 mph - N/A   Partly Cloudy
8:57 PM 77.0 °F - 73.0 °F 88% 30.01 in 10.0 mi Calm Calm - N/A   Mostly Cloudy
9:57 PM 75.0 °F - 73.0 °F 94% 30.02 in 10.0 mi Calm Calm - N/A   Scattered Clouds
10:57 PM 75.0 °F - 72.0 °F 90% 30.02 in 10.0 mi Calm Calm - N/A   Clear